KG6SIB Weather Reports


time (UTC)temp
F
wind
direction
speed
knots
gust
knots
rain 1hr
in
rain 24hr
in
rain mn
in
humidity
%
barometer
mb
20260906041232 70 244 0.0 0.0 0.00 0.00 0.00 52 1018.7
20260906040732 70 244 0.0 0.0 0.00 0.00 0.00 52 1018.6
20260906040232 71 244 0.0 0.0 0.00 0.00 0.00 52 1018.8
20260906035732 71 244 0.0 0.0 0.00 0.00 0.00 52 1018.4
20260906035232 71 244 0.0 0.0 0.00 0.00 0.00 52 1018.4
20260906034732 72 244 0.0 1.7 0.00 0.00 0.00 52 1018.7
20260906034231 72 244 0.0 1.7 0.00 0.00 0.00 51 1018.6
20260906032732 73 244 0.0 0.0 0.00 0.00 0.00 50 1018.5
20260906031732 73 244 0.0 0.0 0.00 0.00 0.00 49 1018.3
20260906031232 73 244 0.0 0.0 0.00 0.00 0.00 49 1018.3
20260906030301 74 244 0.0 2.6 0.00 0.00 0.00 49 1018.6
20260906025731 74 244 0.0 3.5 0.00 0.00 0.00 49 1018.4
20260906024231 75 234 0.9 3.5 0.00 0.00 0.00 48 1018.3
20260906023731 75 232 0.9 3.5 0.00 0.00 0.00 48 1018.3
20260906023231 76 232 0.0 2.6 0.00 0.00 0.00 47 1018.4
20260906022730 76 232 0.0 2.6 0.00 0.00 0.00 47 1018.5
20260906021731 77 232 0.0 4.3 0.00 0.00 0.00 46 1018.5
20260906021230 77 225 3.5 4.3 0.00 0.00 0.00 46 1018.5
20260906020730 77 243 2.6 4.3 0.00 0.00 0.00 45 1018.6
20260906020219 77 242 2.6 5.2 0.00 0.00 0.00 45 1018.5
20260906015730 78 256 2.6 6.1 0.00 0.00 0.00 44 1018.7
20260906015230 78 248 0.9 7.8 0.00 0.00 0.00 44 1018.7
20260906014730 78 254 4.3 7.8 0.00 0.00 0.00 44 1018.8
20260906013230 79 241 0.9 7.0 0.00 0.00 0.00 43 1018.7
20260906012730 79 234 3.5 7.0 0.00 0.00 0.00 42 1018.7
20260906011730 80 238 2.6 5.2 0.00 0.00 0.00 42 1019.1
20260906011230 80 236 3.5 7.8 0.00 0.00 0.00 42 1019.0
20260906010730 80 227 2.6 7.8 0.00 0.00 0.00 42 1019.1
20260906010300 80 265 0.9 7.0 0.00 0.00 0.00 42 1019.0
20260906005730 80 229 4.3 7.8 0.00 0.00 0.00 41 1019.2
20260906005230 81 238 1.7 8.7 0.00 0.00 0.00 41 1019.1
20260906004730 81 270 3.5 8.7 0.00 0.00 0.00 41 1019.0
20260906004229 82 239 7.0 8.7 0.00 0.00 0.00 40 1019.2
20260906003718 82 230 3.5 8.7 0.00 0.00 0.00 40 1019.2
20260906003230 83 219 7.0 8.7 0.00 0.00 0.00 39 1019.1
20260906002729 84 229 7.8 9.6 0.00 0.00 0.00 38 1019.4
20260906002229 84 243 7.0 9.6 0.00 0.00 0.00 38 1019.3
20260906001729 84 261 7.0 11.3 0.00 0.00 0.00 37 1019.2
20260906001229 84 208 0.0 11.3 0.00 0.00 0.00 37 1019.3
20260906000300 85 206 4.3 11.3 0.00 0.00 0.00 37 1019.4
20260905235718 85 226 2.6 10.4 0.00 0.00 0.00 36 1019.3
20260905235229 85 242 0.9 8.7 0.00 0.00 0.00 36 1019.3
20260905234729 86 236 3.5 8.7 0.00 0.00 0.00 36 1019.5
20260905233729 85 238 3.5 9.6 0.00 0.00 0.00 36 1019.2
20260905233229 85 282 1.7 7.8 0.00 0.00 0.00 36 1019.2
20260905232729 86 200 2.6 7.8 0.00 0.00 0.00 35 1019.5
20260905232228 86 355 1.7 8.7 0.00 0.00 0.00 35 1019.4
20260905231729 86 225 2.6 9.6 0.00 0.00 0.00 34 1019.6
20260905231229 86 248 3.5 9.6 0.00 0.00 0.00 34 1019.5
20260905230729 87 242 3.5 8.7 0.00 0.00 0.00 33 1019.5
20260905230258 87 225 7.0 8.7 0.00 0.00 0.00 32 1019.5
20260905225729 88 229 1.7 9.6 0.00 0.00 0.00 32 1019.7
20260905224258 89 259 2.6 11.3 0.00 0.00 0.00 30 1019.7
20260905223758 89 217 6.1 11.3 0.00 0.00 0.00 30 1019.8
20260905223258 89 230 9.6 11.3 0.00 0.00 0.00 29 1019.9
20260905222758 89 209 5.2 11.3 0.00 0.00 0.00 29 1019.9
20260905221758 90 267 5.2 12.2 0.00 0.00 0.00 29 1020.1
20260905221258 90 221 3.5 12.2 0.00 0.00 0.00 29 1020.3
20260905220758 89 246 2.6 9.6 0.00 0.00 0.00 30 1020.0
20260905220258 89 236 7.8 9.6 0.00 0.00 0.00 31 1020.1
20260905215757 88 229 0.9 10.4 0.00 0.00 0.00 32 1020.3
20260905215257 88 255 7.0 10.4 0.00 0.00 0.00 31 1020.2
20260905214758 89 188 1.7 10.4 0.00 0.00 0.00 29 1020.2
20260905214257 89 251 10.4 10.4 0.00 0.00 0.00 29 1020.4
20260905213758 89 246 0.0 9.6 0.00 0.00 0.00 30 1020.3
20260905213258 87 234 4.3 7.0 0.00 0.00 0.00 30 1020.1
20260905212257 87 240 5.2 11.3 0.00 0.00 0.00 30 1020.4
20260905211757 87 294 2.6 7.0 0.00 0.00 0.00 29 1020.2
20260905211257 86 226 1.7 13.9 0.00 0.00 0.00 29 1020.3
20260905210758 86 217 1.7 13.9 0.00 0.00 0.00 29 1020.4
20260905210257 87 227 1.7 10.4 0.00 0.00 0.00 29 1020.3
20260905204757 89 260 1.7 3.5 0.00 0.00 0.00 29 1020.8
20260905204258 88 223 0.0 9.6 0.00 0.00 0.00 28 1020.8
20260905203757 87 233 2.6 10.4 0.00 0.00 0.00 29 1020.7
20260905203258 87 282 0.0 10.4 0.00 0.00 0.00 29 1020.7
20260905202757 87 267 2.6 10.4 0.00 0.00 0.00 30 1020.8
20260905201756 88 250 0.9 11.3 0.00 0.00 0.00 29 1021.1
20260905201257 88 233 6.1 10.4 0.00 0.00 0.00 29 1021.1
20260905200756 88 242 1.7 10.4 0.00 0.00 0.00 29 1021.0
20260905195757 89 246 6.1 11.3 0.00 0.00 0.00 28 1018.3
20260905195256 90 225 7.8 13.0 0.00 0.00 0.00 27 1018.1
20260905194757 90 209 5.2 13.0 0.00 0.00 0.00 27 1018.2
20260905194256 89 240 2.6 8.7 0.00 0.00 0.00 28 1018.1
20260905193756 89 197 1.7 10.4 0.00 0.00 0.00 28 1018.3
20260905193256 88 217 1.7 10.4 0.00 0.00 0.00 28 1018.2
20260905192756 89 260 3.5 10.4 0.00 0.00 0.00 27 1018.6
20260905192256 88 190 2.6 10.4 0.00 0.00 0.00 28 1018.5
20260905191256 90 246 9.6 12.2 0.00 0.00 0.00 25 1018.8
20260905190756 90 238 1.7 12.2 0.00 0.00 0.00 25 1018.8
20260905190256 89 217 6.1 12.2 0.00 0.00 0.00 26 1018.9
20260905185756 89 212 3.5 9.6 0.00 0.00 0.00 26 1018.9
20260905185256 88 238 5.2 12.2 0.00 0.00 0.00 27 1019.0
20260905184256 88 240 8.7 13.0 0.00 0.00 0.00 27 1019.1
20260905183255 86 207 2.6 10.4 0.00 0.00 0.00 29 1018.8
20260905182255 84 254 7.0 13.0 0.00 0.00 0.00 31 1018.6
20260905181756 84 256 3.5 11.3 0.00 0.00 0.00 31 1018.6
20260905181256 84 213 2.6 11.3 0.00 0.00 0.00 31 1018.7
20260905180755 85 254 4.3 10.4 0.00 0.00 0.00 32 1018.6
20260905180255 86 244 0.0 10.4 0.00 0.00 0.00 31 1018.8
20260905175755 86 231 6.1 10.4 0.00 0.00 0.00 29 1018.7
20260905175255 86 232 5.2 10.4 0.00 0.00 0.00 30 1018.7
20260905174255 85 250 1.7 11.3 0.00 0.00 0.00 29 1018.4
20260905173254 85 243 5.2 12.2 0.00 0.00 0.00 30 1018.5
20260905172754 85 221 5.2 12.2 0.00 0.00 0.00 31 1018.5
20260905171756 85 256 6.1 13.0 0.00 0.00 0.00 28 1018.3
20260905171254 85 192 4.3 9.6 0.00 0.00 0.00 29 1018.2
20260905170754 85 236 5.2 12.2 0.00 0.00 0.00 26 1018.1
20260905170254 84 246 1.7 12.2 0.00 0.00 0.00 27 1018.1
20260905165754 83 238 7.8 12.2 0.00 0.00 0.00 27 1018.1
20260905165254 83 261 7.8 12.2 0.00 0.00 0.00 27 1018.1
20260905164254 83 205 1.7 9.6 0.00 0.00 0.00 28 1018.0
20260905163754 83 223 4.3 9.6 0.00 0.00 0.00 28 1018.0
20260905163255 83 240 5.2 7.8 0.00 0.00 0.00 27 1018.0
20260905162743 83 234 5.2 7.8 0.00 0.00 0.00 27 1018.1
20260905162254 82 272 6.1 7.8 0.00 0.00 0.00 24 1018.0
20260905161754 82 250 1.7 7.8 0.00 0.00 0.00 24 1018.0
20260905161253 81 249 2.6 3.5 0.00 0.00 0.00 24 1017.7
20260905160754 80 188 0.0 6.1 0.00 0.00 0.00 22 1017.7
20260905160254 80 248 2.6 7.0 0.00 0.00 0.00 22 1017.8
20260905155755 80 237 1.7 7.0 0.00 0.00 0.00 22 1017.8
20260905082244 54 75 6.1 7.0 0.00 0.00 0.00 49 1017.5
20260905081744 53 40 4.3 7.0 0.00 0.00 0.00 50 1017.4
20260905081244 53 49 3.5 7.0 0.00 0.00 0.00 51 1017.4
20260905080744 53 73 3.5 7.0 0.00 0.00 0.00 52 1017.4
20260905080244 53 50 4.3 7.0 0.00 0.00 0.00 53 1017.5
20260905075244 53 61 4.3 7.0 0.00 0.00 0.00 53 1017.4
20260905074744 53 77 6.1 7.0 0.00 0.00 0.00 53 1017.4
20260905074244 53 66 3.5 7.0 0.00 0.00 0.00 53 1017.4
20260905073744 53 69 2.6 7.0 0.00 0.00 0.00 53 1017.5
20260905073244 54 68 3.5 7.0 0.00 0.00 0.00 53 1017.7
20260905071744 53 76 6.1 7.0 0.00 0.00 0.00 54 1017.5
20260905070743 54 44 3.5 7.0 0.00 0.00 0.00 55 1017.6
20260905070244 54 80 2.6 7.0 0.00 0.00 0.00 54 1017.6
20260905065244 54 66 4.3 7.0 0.00 0.00 0.00 54 1017.4
20260905064744 54 80 3.5 7.0 0.00 0.00 0.00 54 1017.3
20260905064243 54 59 6.1 7.0 0.00 0.00 0.00 54 1017.3
20260905063743 54 43 4.3 6.1 0.00 0.00 0.00 54 1017.3
20260905063243 54 60 4.3 6.1 0.00 0.00 0.00 54 1017.4
20260905062743 54 43 5.2 6.1 0.00 0.00 0.00 54 1017.4
20260905062243 54 76 2.6 6.1 0.00 0.00 0.00 53 1017.4
20260905061743 55 71 4.3 7.0 0.00 0.00 0.00 53 1017.5
20260905060742 54 68 3.5 7.0 0.00 0.00 0.00 54 1017.3
20260905060242 55 42 4.3 7.0 0.00 0.00 0.00 54 1017.6
20260905055742 55 51 2.6 7.0 0.00 0.00 0.00 54 1017.3
20260905054742 55 70 4.3 6.1 0.00 0.00 0.00 54 1017.2
20260905053743 55 67 3.5 7.8 0.00 0.00 0.00 54 1017.3
20260905053242 55 68 7.0 7.8 0.00 0.00 0.00 54 1017.2
20260905052742 55 72 3.5 6.1 0.00 0.00 0.00 54 1017.2
20260905051743 55 61 2.6 7.0 0.00 0.00 0.00 55 1017.2
20260905050742 56 60 2.6 7.0 0.00 0.00 0.00 55 1017.2
20260905050242 56 63 3.5 7.0 0.00 0.00 0.00 56 1017.2
20260905045742 56 77 2.6 6.1 0.00 0.00 0.00 56 1016.9
20260905044742 56 51 2.6 6.1 0.00 0.00 0.00 57 1016.7
20260905044242 56 42 2.6 6.1 0.00 0.00 0.00 57 1016.7
20260905043742 56 35 3.5 6.1 0.00 0.00 0.00 57 1016.7
20260905043241 56 34 3.5 6.1 0.00 0.00 0.00 56 1016.6
20260905042741 56 61 3.5 7.0 0.00 0.00 0.00 56 1016.6
20260905042242 56 51 2.6 7.0 0.00 0.00 0.00 56 1016.5
20260905041741 56 75 1.7 7.0 0.00 0.00 0.00 57 1016.5